| time (UTC) | temp F | wind direction | speed MPH | gust MPH | rain 1hr in | rain 24hr in | rain mn in | humidity % | barometer mb |
| 20260503185256 | 77 | 283 | 0.0 | 0.0 | 0.00 | 0.00 | 0.00 | 56 | 1012.9 |
| 20260503184755 | 77 | 298 | 2.0 | 2.0 | 0.00 | 0.00 | 0.00 | 54 | 1012.8 |
| 20260503184252 | 77 | 302 | 2.0 | 2.0 | 0.00 | 0.00 | 0.00 | 58 | 1012.8 |
| 20260503183748 | 75 | 332 | 1.0 | 2.0 | 0.00 | 0.00 | 0.00 | 56 | 1012.8 |
| 20260503183246 | 76 | 326 | 1.0 | 1.0 | 0.00 | 0.00 | 0.00 | 59 | 1012.8 |
| 20260503182743 | 75 | 316 | 1.0 | 2.0 | 0.00 | 0.00 | 0.00 | 58 | 1013.0 |
| 20260503182242 | 75 | 283 | 1.0 | 2.0 | 0.00 | 0.00 | 0.00 | 58 | 1013.0 |
| 20260503181738 | 75 | 318 | 1.0 | 2.0 | 0.00 | 0.00 | 0.00 | 60 | 1013.2 |
| 20260503181236 | 76 | 291 | 2.0 | 3.0 | 0.00 | 0.00 | 0.00 | 57 | 1013.0 |
| 20260503180732 | 75 | 295 | 0.0 | 1.0 | 0.00 | 0.00 | 0.00 | 60 | 1013.1 |
| 20260503180230 | 73 | 278 | 1.0 | 1.0 | 0.00 | 0.00 | 0.00 | 60 | 1013.0 |
| 20260503175726 | 73 | 296 | 1.0 | 1.0 | 0.00 | 0.00 | 0.00 | 63 | 1013.2 |
| 20260503175225 | 73 | 302 | 2.0 | 2.0 | 0.00 | 0.00 | 0.00 | 61 | 1013.2 |
| 20260503174721 | 73 | 284 | 0.0 | 0.0 | 0.00 | 0.00 | 0.00 | 62 | 1013.3 |
| 20260503174219 | 72 | 299 | 2.0 | 3.0 | 0.00 | 0.00 | 0.00 | 65 | 1013.3 |
| 20260503173713 | 70 | 305 | 0.0 | 0.0 | 0.00 | 0.00 | 0.00 | 70 | 1013.3 |
| 20260503173209 | 70 | 292 | 4.0 | 6.0 | 0.00 | 0.00 | 0.00 | 68 | 1013.6 |
| 20260503172707 | 69 | 350 | 2.0 | 2.0 | 0.00 | 0.00 | 0.00 | 70 | 1013.5 |
| 20260503172204 | 69 | 296 | 1.0 | 1.0 | 0.00 | 0.00 | 0.00 | 70 | 1013.8 |
| 20260503171700 | 69 | 349 | 1.0 | 2.0 | 0.00 | 0.00 | 0.00 | 69 | 1013.7 |
| 20260503171158 | 69 | 298 | 2.0 | 2.0 | 0.00 | 0.00 | 0.00 | 73 | 1013.7 |
| 20260503170654 | 69 | 303 | 3.0 | 3.0 | 0.00 | 0.00 | 0.00 | 72 | 1013.7 |
| 20260503170151 | 68 | 348 | 0.0 | 1.0 | 0.00 | 0.00 | 0.00 | 75 | 1013.6 |
| 20260503160113 | 62 | 343 | 1.0 | 1.0 | 0.00 | 0.00 | 0.00 | 87 | 1014.0 |
| 20260503150542 | 53 | 333 | 0.0 | 0.0 | 0.00 | 0.00 | 0.00 | 99 | 1014.0 |
| 20260503130932 | 48 | 211 | 0.0 | 0.0 | 0.00 | 0.00 | 0.00 | 99 | 1014.2 |
| 20260503130430 | 48 | 211 | 0.0 | 0.0 | 0.00 | 0.00 | 0.00 | 99 | 1014.2 |
| 20260503110326 | 49 | 306 | 0.0 | 0.0 | 0.00 | 0.00 | 0.00 | 99 | 1014.4 |
| 20260503100252 | 50 | 306 | 0.0 | 0.0 | 0.00 | 0.00 | 0.00 | 99 | 1014.3 |
| 20260503090212 | 50 | 306 | 0.0 | 0.0 | 0.00 | 0.00 | 0.00 | 99 | 1014.5 |
| 20260503081138 | 52 | 306 | 0.0 | 0.0 | 0.00 | 0.00 | 0.00 | 99 | 1014.3 |
| 20260503080634 | 52 | 306 | 0.0 | 0.0 | 0.00 | 0.00 | 0.00 | 99 | 1014.4 |
| 20260503080132 | 53 | 306 | 0.0 | 0.0 | 0.00 | 0.00 | 0.00 | 99 | 1014.3 |
| 20260503072608 | 53 | 306 | 0.0 | 0.0 | 0.00 | 0.00 | 0.00 | 99 | 1014.3 |
| 20260503072106 | 53 | 306 | 0.0 | 0.0 | 0.00 | 0.00 | 0.00 | 99 | 1014.0 |
| 20260503071602 | 53 | 306 | 0.0 | 0.0 | 0.00 | 0.00 | 0.00 | 99 | 1014.5 |
| 20260503071059 | 53 | 306 | 0.0 | 0.0 | 0.00 | 0.00 | 0.00 | 99 | 1014.4 |
| 20260503070555 | 53 | 306 | 0.0 | 0.0 | 0.00 | 0.00 | 0.00 | 99 | 1014.3 |
| 20260503055009 | 56 | 306 | 0.0 | 0.0 | 0.00 | 0.00 | 0.00 | 99 | 1014.2 |
| 20260503054504 | 56 | 306 | 0.0 | 0.0 | 0.00 | 0.00 | 0.00 | 98 | 1014.0 |
| 20260503054003 | 56 | 306 | 0.0 | 0.0 | 0.00 | 0.00 | 0.00 | 98 | 1013.9 |
| 20260503053500 | 57 | 306 | 0.0 | 0.0 | 0.00 | 0.00 | 0.00 | 98 | 1014.2 |
| 20260503052957 | 56 | 306 | 0.0 | 0.0 | 0.00 | 0.00 | 0.00 | 97 | 1014.1 |
| 20260503052454 | 57 | 306 | 0.0 | 0.0 | 0.00 | 0.00 | 0.00 | 96 | 1013.9 |
| 20260503051950 | 57 | 306 | 0.0 | 0.0 | 0.00 | 0.00 | 0.00 | 96 | 1014.0 |
| 20260503051446 | 57 | 306 | 0.0 | 0.0 | 0.00 | 0.00 | 0.00 | 96 | 1013.9 |
| 20260503050944 | 58 | 306 | 0.0 | 0.0 | 0.00 | 0.00 | 0.00 | 96 | 1013.8 |
| 20260503050439 | 58 | 306 | 0.0 | 0.0 | 0.00 | 0.00 | 0.00 | 95 | 1014.0 |
| 20260503045937 | 58 | 306 | 0.0 | 0.0 | 0.00 | 0.00 | 0.00 | 95 | 1014.0 |
| 20260503045434 | 58 | 306 | 0.0 | 0.0 | 0.00 | 0.00 | 0.00 | 95 | 1013.9 |
| 20260503044931 | 58 | 306 | 0.0 | 0.0 | 0.00 | 0.00 | 0.00 | 93 | 1013.9 |
| 20260503044428 | 58 | 306 | 0.0 | 0.0 | 0.00 | 0.00 | 0.00 | 92 | 1013.9 |
| 20260503043926 | 59 | 306 | 0.0 | 0.0 | 0.00 | 0.00 | 0.00 | 91 | 1013.9 |
| 20260503043422 | 59 | 306 | 0.0 | 0.0 | 0.00 | 0.00 | 0.00 | 91 | 1013.6 |
| 20260503042918 | 59 | 306 | 0.0 | 0.0 | 0.00 | 0.00 | 0.00 | 90 | 1013.7 |
| 20260503042415 | 60 | 306 | 1.0 | 1.0 | 0.00 | 0.00 | 0.00 | 90 | 1013.5 |
| 20260503041911 | 60 | 306 | 0.0 | 0.0 | 0.00 | 0.00 | 0.00 | 88 | 1013.8 |
| 20260503041408 | 60 | 306 | 1.0 | 1.0 | 0.00 | 0.00 | 0.00 | 88 | 1013.5 |
| 20260503040906 | 61 | 306 | 0.0 | 1.0 | 0.00 | 0.00 | 0.00 | 87 | 1013.3 |
| 20260503040403 | 61 | 306 | 0.0 | 1.0 | 0.00 | 0.00 | 0.00 | 86 | 1013.4 |
| 20260503035900 | 62 | 306 | 0.0 | 0.0 | 0.00 | 0.00 | 0.00 | 84 | 1013.2 |
| 20260503035357 | 62 | 306 | 0.0 | 0.0 | 0.00 | 0.00 | 0.00 | 83 | 1013.4 |
| 20260503034854 | 63 | 306 | 0.0 | 0.0 | 0.00 | 0.00 | 0.00 | 82 | 1013.0 |
| 20260503034352 | 63 | 306 | 0.0 | 0.0 | 0.00 | 0.00 | 0.00 | 81 | 1013.2 |
| 20260503033849 | 63 | 306 | 0.0 | 0.0 | 0.00 | 0.00 | 0.00 | 79 | 1013.1 |
| 20260503033346 | 64 | 306 | 0.0 | 0.0 | 0.00 | 0.00 | 0.00 | 77 | 1012.8 |
| 20260503032844 | 65 | 306 | 1.0 | 1.0 | 0.00 | 0.00 | 0.00 | 76 | 1012.6 |
| 20260503032343 | 65 | 306 | 0.0 | 0.0 | 0.00 | 0.00 | 0.00 | 76 | 1012.4 |
| 20260503031840 | 66 | 306 | 0.0 | 0.0 | 0.00 | 0.00 | 0.00 | 72 | 1012.7 |
| 20260503031337 | 67 | 306 | 0.0 | 0.0 | 0.00 | 0.00 | 0.00 | 70 | 1012.6 |
| 20260503030834 | 68 | 306 | 0.0 | 0.0 | 0.00 | 0.00 | 0.00 | 69 | 1012.6 |
| 20260503030330 | 69 | 306 | 0.0 | 0.0 | 0.00 | 0.00 | 0.00 | 67 | 1012.5 |
| 20260503025827 | 69 | 303 | 1.0 | 2.0 | 0.00 | 0.00 | 0.00 | 64 | 1012.6 |
| 20260503025325 | 70 | 303 | 0.0 | 0.0 | 0.00 | 0.00 | 0.00 | 64 | 1012.4 |
| 20260503024821 | 70 | 286 | 2.0 | 2.0 | 0.00 | 0.00 | 0.00 | 63 | 1012.3 |
| 20260503024318 | 70 | 306 | 1.0 | 1.0 | 0.00 | 0.00 | 0.00 | 64 | 1012.5 |
| 20260503023815 | 71 | 303 | 0.0 | 0.0 | 0.00 | 0.00 | 0.00 | 63 | 1012.4 |
| 20260503023312 | 72 | 306 | 2.0 | 2.0 | 0.00 | 0.00 | 0.00 | 63 | 1012.3 |
| 20260503022809 | 72 | 291 | 3.0 | 3.0 | 0.00 | 0.00 | 0.00 | 61 | 1012.1 |
| 20260503022308 | 71 | 275 | 3.0 | 3.0 | 0.00 | 0.00 | 0.00 | 63 | 1012.3 |
| 20260503021805 | 72 | 311 | 2.0 | 2.0 | 0.00 | 0.00 | 0.00 | 63 | 1012.3 |
| 20260503021301 | 72 | 307 | 1.0 | 2.0 | 0.00 | 0.00 | 0.00 | 63 | 1012.2 |
| 20260503020759 | 72 | 309 | 1.0 | 1.0 | 0.00 | 0.00 | 0.00 | 64 | 1012.3 |
| 20260503020257 | 73 | 336 | 1.0 | 1.0 | 0.00 | 0.00 | 0.00 | 63 | 1012.2 |
| 20260503015752 | 73 | 287 | 1.0 | 2.0 | 0.00 | 0.00 | 0.00 | 62 | 1012.1 |
| 20260503015250 | 73 | 317 | 0.0 | 1.0 | 0.00 | 0.00 | 0.00 | 63 | 1012.3 |
| 20260503014745 | 73 | 302 | 1.0 | 2.0 | 0.00 | 0.00 | 0.00 | 63 | 1012.2 |
| 20260503014244 | 73 | 308 | 0.0 | 1.0 | 0.00 | 0.00 | 0.00 | 63 | 1012.3 |
| 20260503013740 | 74 | 329 | 1.0 | 1.0 | 0.00 | 0.00 | 0.00 | 63 | 1012.3 |
| 20260503013238 | 74 | 82 | 2.0 | 2.0 | 0.00 | 0.00 | 0.00 | 63 | 1012.2 |
| 20260503012735 | 74 | 280 | 0.0 | 1.0 | 0.00 | 0.00 | 0.00 | 62 | 1012.0 |
| 20260503012232 | 75 | 310 | 1.0 | 1.0 | 0.00 | 0.00 | 0.00 | 61 | 1012.2 |
| 20260503011729 | 77 | 299 | 1.0 | 1.0 | 0.00 | 0.00 | 0.00 | 60 | 1012.3 |
| 20260503011226 | 77 | 302 | 0.0 | 0.0 | 0.00 | 0.00 | 0.00 | 60 | 1012.1 |
| 20260503010722 | 76 | 324 | 0.0 | 0.0 | 0.00 | 0.00 | 0.00 | 61 | 1012.1 |
| 20260503010219 | 76 | 291 | 1.0 | 2.0 | 0.00 | 0.00 | 0.00 | 61 | 1012.1 |
| 20260503005717 | 77 | 299 | 2.0 | 2.0 | 0.00 | 0.00 | 0.00 | 62 | 1012.3 |
| 20260503005214 | 76 | 268 | 3.0 | 3.0 | 0.00 | 0.00 | 0.00 | 61 | 1012.3 |
| 20260503004710 | 76 | 310 | 3.0 | 5.0 | 0.00 | 0.00 | 0.00 | 61 | 1012.3 |
| 20260503004209 | 77 | 265 | 2.0 | 2.0 | 0.00 | 0.00 | 0.00 | 60 | 1012.3 |
| 20260503003705 | 77 | 316 | 2.0 | 2.0 | 0.00 | 0.00 | 0.00 | 60 | 1012.4 |
| 20260503003202 | 78 | 310 | 2.0 | 2.0 | 0.00 | 0.00 | 0.00 | 59 | 1012.1 |
| 20260503002659 | 77 | 300 | 2.0 | 6.0 | 0.00 | 0.00 | 0.00 | 59 | 1012.3 |
| 20260503002155 | 78 | 344 | 3.0 | 3.0 | 0.00 | 0.00 | 0.00 | 59 | 1012.4 |
| 20260503001651 | 78 | 310 | 0.0 | 1.0 | 0.00 | 0.00 | 0.00 | 58 | 1012.3 |
| 20260503001148 | 78 | 334 | 3.0 | 5.0 | 0.00 | 0.00 | 0.00 | 59 | 1012.3 |
| 20260503000646 | 77 | 335 | 1.0 | 2.0 | 0.00 | 0.00 | 0.00 | 60 | 1012.5 |
| 20260503000143 | 77 | 318 | 1.0 | 2.0 | 0.00 | 0.00 | 0.00 | 60 | 1012.4 |
| 20260502235640 | 77 | 297 | 1.0 | 2.0 | 0.00 | 0.00 | 0.00 | 60 | 1012.4 |
| 20260502235138 | 77 | 308 | 0.0 | 1.0 | 0.00 | 0.00 | 0.00 | 60 | 1012.6 |
| 20260502234633 | 78 | 335 | 2.0 | 3.0 | 0.00 | 0.00 | 0.00 | 60 | 1012.4 |
| 20260502234131 | 78 | 315 | 3.0 | 3.0 | 0.00 | 0.00 | 0.00 | 59 | 1012.7 |
| 20260502233627 | 77 | 299 | 2.0 | 2.0 | 0.00 | 0.00 | 0.00 | 61 | 1012.6 |
| 20260502233124 | 77 | 334 | 2.0 | 3.0 | 0.00 | 0.00 | 0.00 | 63 | 1013.0 |
| 20260502232620 | 79 | 310 | 2.0 | 2.0 | 0.00 | 0.00 | 0.00 | 60 | 1012.9 |
| 20260502232118 | 78 | 300 | 1.0 | 1.0 | 0.00 | 0.00 | 0.00 | 60 | 1012.9 |
| 20260502231614 | 77 | 304 | 3.0 | 5.0 | 0.00 | 0.00 | 0.00 | 61 | 1012.8 |
| 20260502231112 | 78 | 322 | 3.0 | 5.0 | 0.00 | 0.00 | 0.00 | 61 | 1013.1 |
| 20260502230610 | 77 | 301 | 2.0 | 2.0 | 0.00 | 0.00 | 0.00 | 63 | 1013.1 |
| 20260502230108 | 77 | 292 | 2.0 | 2.0 | 0.00 | 0.00 | 0.00 | 62 | 1013.1 |
| 20260502225603 | 77 | 261 | 0.0 | 0.0 | 0.00 | 0.00 | 0.00 | 62 | 1013.3 |
| 20260502225101 | 76 | 315 | 1.0 | 1.0 | 0.00 | 0.00 | 0.00 | 64 | 1013.5 |
| 20260502224557 | 77 | 332 | 3.0 | 3.0 | 0.00 | 0.00 | 0.00 | 63 | 1013.4 |
| 20260502224054 | 76 | 301 | 2.0 | 2.0 | 0.00 | 0.00 | 0.00 | 63 | 1013.5 |
| 20260502223552 | 76 | 345 | 4.0 | 6.0 | 0.00 | 0.00 | 0.00 | 63 | 1013.7 |
| 20260502223050 | 75 | 344 | 3.0 | 3.0 | 0.00 | 0.00 | 0.00 | 66 | 1013.6 |
| 20260502222547 | 77 | 305 | 1.0 | 2.0 | 0.00 | 0.00 | 0.00 | 64 | 1013.8 |
| 20260502222043 | 76 | 310 | 1.0 | 3.0 | 0.00 | 0.00 | 0.00 | 64 | 1013.8 |
| 20260502221539 | 76 | 319 | 3.0 | 3.0 | 0.00 | 0.00 | 0.00 | 66 | 1013.7 |
| 20260502221036 | 76 | 314 | 1.0 | 2.0 | 0.00 | 0.00 | 0.00 | 68 | 1014.1 |
| 20260502220532 | 77 | 333 | 2.0 | 3.0 | 0.00 | 0.00 | 0.00 | 64 | 1014.0 |
| 20260502220029 | 75 | 329 | 2.0 | 3.0 | 0.00 | 0.00 | 0.00 | 65 | 1013.8 |
| 20260502215526 | 75 | 309 | 1.0 | 2.0 | 0.00 | 0.00 | 0.00 | 66 | 1013.9 |
| 20260502215023 | 75 | 272 | 3.0 | 5.0 | 0.00 | 0.00 | 0.00 | 65 | 1014.1 |
| 20260502214520 | 75 | 295 | 1.0 | 1.0 | 0.00 | 0.00 | 0.00 | 64 | 1014.0 |
| 20260502214017 | 76 | 309 | 1.0 | 2.0 | 0.00 | 0.00 | 0.00 | 64 | 1014.0 |
| 20260502213514 | 75 | 306 | 0.0 | 0.0 | 0.00 | 0.00 | 0.00 | 65 | 1014.2 |
| 20260502213012 | 74 | 303 | 3.0 | 5.0 | 0.00 | 0.00 | 0.00 | 65 | 1014.4 |
| 20260502212510 | 74 | 299 | 1.0 | 1.0 | 0.00 | 0.00 | 0.00 | 65 | 1014.4 |
| 20260502212008 | 74 | 268 | 3.0 | 5.0 | 0.00 | 0.00 | 0.00 | 64 | 1014.3 |
| 20260502211503 | 74 | 320 | 0.0 | 0.0 | 0.00 | 0.00 | 0.00 | 66 | 1014.6 |
| 20260502211001 | 74 | 293 | 1.0 | 1.0 | 0.00 | 0.00 | 0.00 | 65 | 1014.3 |
| 20260502210457 | 74 | 323 | 2.0 | 2.0 | 0.00 | 0.00 | 0.00 | 65 | 1014.7 |
| 20260502205954 | 74 | 315 | 2.0 | 3.0 | 0.00 | 0.00 | 0.00 | 66 | 1014.7 |
| 20260502205450 | 74 | 348 | 0.0 | 1.0 | 0.00 | 0.00 | 0.00 | 66 | 1014.5 |
| 20260502204948 | 74 | 324 | 2.0 | 3.0 | 0.00 | 0.00 | 0.00 | 65 | 1014.6 |
| 20260502204445 | 73 | 320 | 2.0 | 2.0 | 0.00 | 0.00 | 0.00 | 68 | 1014.7 |
| 20260502203943 | 73 | 329 | 1.0 | 2.0 | 0.00 | 0.00 | 0.00 | 66 | 1014.8 |
| 20260502203440 | 73 | 276 | 0.0 | 1.0 | 0.00 | 0.00 | 0.00 | 65 | 1014.6 |
| 20260502202936 | 72 | 23 | 2.0 | 2.0 | 0.00 | 0.00 | 0.00 | 65 | 1014.8 |
| 20260502202432 | 73 | 312 | 1.0 | 1.0 | 0.00 | 0.00 | 0.00 | 66 | 1014.9 |
| 20260502201931 | 73 | 315 | 0.0 | 1.0 | 0.00 | 0.00 | 0.00 | 66 | 1014.9 |
| 20260502201426 | 72 | 290 | 0.0 | 0.0 | 0.00 | 0.00 | 0.00 | 65 | 1014.9 |
| 20260502200924 | 72 | 289 | 0.0 | 0.0 | 0.00 | 0.00 | 0.00 | 64 | 1015.0 |
| 20260502200419 | 71 | 277 | 1.0 | 1.0 | 0.00 | 0.00 | 0.00 | 68 | 1015.0 |
| 20260502195917 | 71 | 290 | 2.0 | 3.0 | 0.00 | 0.00 | 0.00 | 68 | 1015.2 |
| 20260502195414 | 70 | 31 | 2.0 | 3.0 | 0.00 | 0.00 | 0.00 | 71 | 1015.4 |
| 20260502194910 | 70 | 293 | 1.0 | 1.0 | 0.00 | 0.00 | 0.00 | 69 | 1015.4 |
| 20260502194407 | 69 | 288 | 0.0 | 0.0 | 0.00 | 0.00 | 0.00 | 71 | 1015.4 |
| 20260502193903 | 69 | 352 | 1.0 | 2.0 | 0.00 | 0.00 | 0.00 | 72 | 1015.5 |
| 20260502193400 | 68 | 320 | 0.0 | 0.0 | 0.00 | 0.00 | 0.00 | 72 | 1015.7 |
| 20260502192855 | 69 | 333 | 1.0 | 1.0 | 0.00 | 0.00 | 0.00 | 70 | 1015.8 |
| 20260502192353 | 68 | 258 | 2.0 | 2.0 | 0.00 | 0.00 | 0.00 | 73 | 1015.5 |
| 20260502191850 | 68 | 302 | 3.0 | 3.0 | 0.00 | 0.00 | 0.00 | 73 | 1015.8 |
| 20260502191348 | 69 | 331 | 3.0 | 3.0 | 0.00 | 0.00 | 0.00 | 71 | 1015.9 |
| 20260502190845 | 67 | 308 | 1.0 | 2.0 | 0.00 | 0.00 | 0.00 | 75 | 1015.8 |
| 20260502190342 | 68 | 288 | 3.0 | 5.0 | 0.00 | 0.00 | 0.00 | 72 | 1016.0 |
| 20260502185838 | 68 | 317 | 2.0 | 3.0 | 0.00 | 0.00 | 0.00 | 72 | 1016.1 |